RH
9 9 9 10 10 10 10 11 11 13 15 19 25 33 37 37 38 42 46 50 54 58 59 59 56 53 53 47 41 39 42 43 40 34 30 27 22 17 18 15 14 28 32
10 11 10 10 11 11 11 16 22 26 26 22 27 36 39 41 42 44 46 50 54 58 60 62 61 61 61 58 52 48 50 53 50 41 34 34 29 21 18 16 12 21 34
12 12 12 12 11 13 20 21 23 31 36 35 33 35 42 46 47 48 52 56 60 67 68 65 64 66 66 64 63 61 60 62 61 53 44 38 38 33 22 14 12 10 22
13 13 13 14 14 16 18 19 23 30 37 39 38 39 44 48 56 58 61 67 74 73 68 65 64 66 71 74 76 78 76 74 74 66 54 44 43 41 37 28 16 10 9
14 16 17 19 21 22 22 25 31 41 43 43 42 43 50 56 61 64 69 72 72 76 74 75 77 79 82 79 86 79 70 75 79 74 70 57 51 44 45 40 33 19 9
18 22 24 26 28 28 28 27 37 45 47 48 52 55 58 60 62 65 67 65 74 75 75 79 78 77 80 80 83 75 79 84 82 78 72 68 59 50 52 53 40 31 27
26 33 38 39 39 36 31 35 50 55 58 60 64 67 64 63 62 64 63 64 71 78 79 78 79 79 83 87 81 76 75 79 88 88 79 75 72 63 66 71 55 45 31
43 47 49 48 45 45 46 56 62 62 66 72 75 74 71 71 71 74 77 80 81 78 77 78 84 88 86 84 82 78 76 78 91 94 94 91 86 89 93 88 74 61 55
53 57 58 57 60 67 69 70 70 68 72 75 76 77 79 81 81 87 85 83 80 79 75 74 86 93 98 96 91 92 93 98 96 100 100 99 99 98 100 92 86 80 77
76 72 73 79 80 76 75 73 80 82 85 85 90 93 95 94 93 92 86 88 84 81 74 61 72 84 100 98 95 94 94 89 80 94 100 100 97 98 99 100 100 93 83
94 90 90 88 84 82 84 87 92 98 98 100 100 100 100 100 100 100 99 97 94 88 81 70 61 66 92 100 99 96 98 97 81 83 84 92 86 68 100 98 97 96 94
97 98 95 90 87 84 84 98 100 100 100 100 100 99 100 100 100 100 99 100 99 100 96 91 84 99 84 98 100 100 100 100 90 80 78 100 100 97 100 100 99 100 100
96 91 87 87 86 84 79 85 96 100 100 100 100 100 100 100 100 100 100 100 100 100 100 94 100 100 91 98 100 96 92 94 96 94 100 100 100 100 100 100 96 99 100
97 93 84 80 82 88 86 92 100 99 97 99 100 100 100 100 100 100 100 99 100 100 100 95 100 100 100 100 93 84 100 99 96 98 100 100 100 100 100 100 100 100 96
85 91 83 80 75 86 85 86 86 92 100 100 100 100 100 100 100 100 100 100 100 100 100 100 100 100 100 97 89 96 93 98 100 100 100 100 100 100 100 100 100 99 98
77 71 91 90 79 90 100 94 82 84 89 100 100 100 100 100 100 100 100 100 99 100 100 100 100 100 100 96 100 100 99 94 89 94 100 100 100 100 100 100 100 100 97
58 74 91 100 92 92 99 100 98 88 60 56 89 100 100 100 100 100 100 100 100 100 100 100 96 96 99 100 100 100 100 98 97 100 100 100 99 99 100 100 98 95 87
100 99 100 100 100 100 100 100 98 100 82 98 100 100 100 100 100 100 100 100 100 100 100 100 100 100 100 100 100 100 100 100 100 100 100 100 99 96 84 66 42 28 27
100 100 100 100 100 100 100 100 99 100 100 100 100 100 100 100 100 100 100 100 100 100 100 100 100 100 100 100 100 100 100 100 96 95 91 86 77 78 53 31 23 20 21
100 100 100 100 100 100 100 100 100 100 100 100 100 100 100 100 100 100 100 100 100 100 100 100 100 100 99 91 87 83 79 71 62 61 61 55 54 44 37 26 27 23 18
98 97 99 99 96 98 99 99 100 100 100 100 100 99 100 100 100 100 100 100 100 100 100 100 100 98 85 81 79 69 58 59 53 41 37 34 31 35 35 36 30 16 9
90 86 89 96 88 99 95 87 91 100 96 95 99 100 99 100 100 100 100 100 100 100 100 100 95 84 67 45 35 32 30 29 27 25 25 31 38 38 34 26 15 11 11
100 100 100 100 100 100 100 100 100 100 100 100 100 100 100 100 100 100 100 100 100 100 96 88 73 57 41 43 44 41 39 34 30 29 30 28 21 16 16 16 16 13 13
100 100 100 100 100 100 100 100 100 100 100 100 100 100 100 100 100 100 98 98 96 92 87 73 63 54 57 54 46 41 36 26 19 18 17 18 19 18 18 16 14 15 18
100 100 100 100 100 100 100 100 100 100 100 100 100 100 99 95 98 97 97 96 91 83 75 71 70 64 55 44 35 29 22 25 29 30 31 31 32 31 29 29 29 29 28
89 91 94 95 97 98 97 99 94 92 93 94 92 88 86 87 88 87 82 77 75 75 72 66 56 40 34 30 29 31 34 37 39 40 39 40 40 38 36 33 29 25 22
Wind_Speed
31 31 32 34 34 34 36 37 38 41 42 42 40 38 37 36 35 35 35 35 36 36 36 36 35 36 35 35 34 35 35 34 31 30 29 29 30 34 35 35 34 34 34
34 34 35 34 36 38 38 39 41 43 44 44 43 41 41 39 38 38 37 38 38 38 37 38 38 37 37 36 37 37 37 36 34 31 30 30 31 34 35 36 35 36 36
34 35 36 37 39 40 41 43 44 46 46 46 46 44 42 40 39 39 40 40 39 39 38 37 36 36 36 38 39 39 39 38 37 34 32 32 31 33 36 38 38 38 39
37 37 36 38 41 44 45 47 48 48 46 45 44 43 42 40 40 42 41 41 40 38 37 37 39 39 40 41 41 40 40 41 39 38 36 35 34 35 35 39 41 42 42
39 39 40 43 46 47 47 49 48 45 43 42 43 42 42 41 42 43 43 43 41 39 39 41 43 43 44 45 42 41 39 40 41 41 41 41 39 39 40 38 42 44 44
41 41 44 47 48 50 51 51 48 44 43 42 43 42 43 42 44 44 45 43 43 44 45 46 46 47 46 45 45 43 41 40 43 44 44 44 44 43 43 43 40 44 46
47 49 51 52 53 52 51 48 45 43 42 42 43 43 44 45 46 46 47 47 47 48 48 49 50 49 49 48 47 48 48 47 46 47 48 47 47 47 48 46 44 42 44
53 55 57 57 56 53 49 46 44 44 44 44 44 45 45 47 48 48 50 51 50 50 51 51 51 50 48 47 49 51 52 51 52 51 52 52 51 51 52 51 51 49 46
58 60 58 57 54 49 48 46 45 45 46 47 47 48 49 50 51 52 54 54 53 52 52 53 54 54 54 53 53 53 54 55 55 55 54 54 54 52 53 55 59 56 52
55 53 52 52 51 49 48 48 49 49 49 50 51 51 52 53 55 56 56 56 55 54 54 53 55 57 58 57 56 57 58 59 58 58 57 57 56 54 57 55 52 54 54
52 52 52 53 52 51 50 51 52 52 53 54 55 55 56 56 58 58 58 59 59 58 57 56 56 57 60 62 61 60 61 60 60 61 62 59 54 58 60 59 56 57 58
55 53 51 54 54 54 53 53 56 57 57 58 59 59 58 59 60 59 61 62 63 62 61 60 60 62 61 63 67 67 66 63 61 61 64 70 64 68 66 61 58 60 62
57 58 58 58 60 60 59 58 58 59 59 61 62 61 61 60 62 62 63 62 65 68 69 65 66 68 65 65 66 70 70 64 64 65 72 72 67 70 64 62 61 62 63
61 64 65 65 64 63 64 62 61 62 63 64 64 63 63 59 64 63 69 67 67 71 68 68 71 71 69 68 69 69 65 65 65 67 67 68 66 65 64 67 64 62 60
67 71 71 69 68 68 69 69 67 66 64 65 67 67 65 68 63 72 76 75 76 71 66 71 74 72 72 74 74 66 66 63 66 69 72 71 67 63 60 58 59 58 60
80 76 72 71 71 72 73 74 73 70 68 68 70 64 68 70 68 74 75 78 75 72 65 72 71 71 74 76 71 67 66 66 67 72 73 73 72 73 74 76 74 68 69
80 74 70 72 71 71 72 71 67 67 66 71 74 74 71 72 76 80 80 70 66 70 72 70 72 76 74 71 69 67 66 69 71 73 75 77 79 82 84 84 79 77 74
74 70 69 74 70 68 76 71 69 76 73 80 80 79 79 80 70 65 67 67 73 76 73 70 72 73 69 69 69 69 70 73 76 79 82 81 78 75 75 74 74 74 76
70 72 79 81 72 73 72 69 68 77 82 83 78 78 84 77 71 69 68 70 72 71 72 69 67 65 65 65 68 70 68 73 75 77 78 72 71 75 75 75 74 74 74
44 44 43 48 54 61 66 68 70 73 74 75 73 71 68 67 63 60 60 61 60 62 63 64 63 65 65 63 66 66 66 70 69 71 74 75 73 74 76 76 73 73 66
56 56 58 51 53 47 47 48 51 53 52 54 52 51 54 57 55 57 61 60 60 62 64 63 65 67 68 68 69 71 72 72 74 75 75 78 79 77 75 73 70 63 60
63 65 71 65 64 55 56 57 55 56 57 56 57 58 56 62 59 59 59 60 63 67 69 70 71 71 69 69 71 73 75 77 79 81 82 81 80 77 72 68 64 63 63
44 48 50 50 51 53 56 55 55 56 57 58 59 62 61 62 61 62 64 67 69 70 74 74 74 73 74 76 77 80 81 83 83 82 79 75 71 68 66 64 64 66 68
46 47 49 47 48 49 51 52 55 58 58 60 60 62 64 65 66 69 73 74 75 77 77 79 79 80 83 82 83 83 82 80 75 72 70 69 67 67 66 67 68 71 72
47 48 50 52 54 55 57 58 59 61 62 64 65 66 69 73 74 76 77 78 79 82 83 84 85 84 82 81 80 77 74 73 73 73 73 72 72 71 71 72 73 75 75
56 59 61 62 63 65 67 68 69 70 71 72 73 75 77 78 79 80 81 82 83 84 84 84 84 82 80 78 77 76 77 77 78 79 78 77 77 77 77 78 80 80 80
Wind_Direction
278 284 285 287 287 288 289 292 293 292 292 291 289 285 281 276 273 271 271 271 271 272 272 271 270 270 271 269 269 270 271 274 279 285 288 289 277 268 268 271 271 264 255
283 286 287 287 288 288 288 289 291 292 291 288 287 282 278 276 274 273 273 272 273 274 274 274 274 273 271 268 267 267 270 273 274 279 282 282 279 272 267 268 269 266 262
284 286 287 288 288 286 286 289 292 291 288 284 281 279 277 276 275 274 274 275 275 276 275 275 273 271 269 267 267 268 270 271 271 271 275 278 278 274 268 267 267 265 264
283 283 283 284 284 284 287 288 288 288 285 281 278 276 276 275 274 276 277 277 276 274 274 274 273 270 268 269 268 267 267 267 267 268 270 271 274 273 272 267 265 265 264
281 282 285 285 285 286 286 287 289 286 279 274 272 273 273 273 275 275 275 275 275 275 274 275 274 273 272 269 265 264 265 267 265 267 269 268 271 271 269 269 264 261 264
286 287 287 286 287 287 286 285 287 281 274 271 270 270 270 271 271 272 273 275 275 275 277 277 276 276 274 270 264 260 266 272 271 269 270 269 271 276 271 270 268 260 261
292 291 291 290 289 287 284 285 283 276 270 267 266 266 268 269 269 270 271 273 274 275 275 274 274 274 272 270 267 266 270 271 276 272 271 269 271 274 274 270 268 269 263
293 293 291 290 288 285 283 283 280 274 268 265 264 264 265 266 267 268 269 271 271 271 272 272 271 270 269 268 269 270 269 270 274 272 270 270 270 271 271 270 270 269 271
289 289 288 285 282 281 281 280 277 271 267 265 265 265 265 266 267 268 269 269 267 268 271 273 272 271 268 270 271 268 269 270 271 268 267 267 269 270 271 268 268 267 270
287 283 279 277 278 278 277 276 272 267 266 266 266 266 266 266 267 268 268 266 266 269 271 273 271 271 268 270 272 271 270 272 271 269 266 264 265 264 268 264 264 265 266
279 277 276 276 277 277 277 274 270 268 267 267 267 267 266 266 267 268 267 266 267 269 272 273 272 270 268 270 274 275 275 273 271 269 263 261 261 267 263 262 264 264 265
276 273 274 275 275 275 274 271 269 267 268 269 268 266 266 267 267 267 268 268 270 271 274 275 271 269 272 272 273 277 278 275 270 266 260 267 264 269 262 264 266 264 266
273 276 277 277 277 276 275 272 269 268 269 269 268 267 267 265 264 266 265 266 269 271 273 272 267 265 270 272 275 279 280 277 268 266 269 266 259 260 259 262 263 262 265
277 277 278 277 277 275 274 271 269 271 271 270 269 269 268 265 266 269 265 266 267 265 273 274 266 267 270 275 282 279 274 273 273 272 269 265 259 258 258 257 256 258 261
276 279 278 276 274 272 270 269 270 270 268 268 269 267 266 267 263 258 257 263 269 269 271 269 266 272 279 281 282 276 279 275 274 271 268 265 262 259 259 261 262 267 271
276 274 273 271 270 269 270 271 269 266 267 267 269 267 268 262 257 262 264 268 270 274 267 269 269 271 277 278 274 272 272 271 271 271 271 267 262 260 264 267 274 280 283
273 271 269 268 272 270 268 264 264 267 270 271 267 265 260 257 261 258 263 268 270 266 265 268 273 274 274 269 270 269 268 270 269 268 267 267 267 268 270 273 280 285 286
266 268 263 261 265 262 262 263 264 260 267 265 263 258 253 255 253 257 264 264 264 266 264 268 270 269 266 268 267 268 268 268 268 268 267 267 273 278 281 281 282 283 283
259 260 261 257 257 258 259 263 266 261 256 252 253 254 258 252 251 255 258 260 263 264 264 265 263 263 264 265 267 268 270 268 270 274 276 280 282 282 281 278 280 281 281
266 268 267 265 263 258 257 259 260 263 265 265 264 263 262 264 267 265 264 262 261 260 258 259 261 265 271 277 276 281 283 283 283 283 284 284 280 276 277 278 279 281 278
274 277 284 284 284 277 268 267 269 267 265 265 265 270 268 262 261 266 265 259 256 255 262 270 277 282 282 283 283 284 285 283 282 281 278 277 276 275 277 278 279 275 270
286 286 286 283 282 271 276 279 270 265 268 271 269 268 268 268 260 259 260 261 263 269 270 275 278 279 279 281 282 282 282 281 281 280 276 275 275 275 275 274 272 271 269
272 270 264 258 262 258 258 258 258 258 259 258 258 260 260 261 263 265 266 269 272 274 276 277 277 277 278 279 280 281 280 280 277 275 275 274 273 273 271 270 270 269 270
272 269 269 267 265 263 262 262 262 263 262 263 265 266 268 268 270 272 272 273 275 276 277 276 275 275 277 277 278 277 276 276 275 276 275 273 273 273 272 272 271 271 271
275 271 270 271 273 272 271 271 268 268 268 269 271 272 273 274 274 273 273 273 273 273 272 272 273 275 276 276 276 275 274 274 275 275 274 275 275 275 274 273 272 272 271
276 276 277 278 279 278 278 278 276 275 275 276 275 275 273 272 272 272 272 272 273 273 273 274 276 275 275 275 274 274 274 275 275 275 275 275 275 275 274 273 272 272 271